Vilnius, Lithuania

6:14 PM EET on February 25, 2018 (GMT +0200)
Vilnius International

Weather History for EYVI - February, 2014

Change the Weather History Date:

Sunday, February 23, 2014

  Actual Average Record
Temperature  
Mean Temperature 36 °F -  
Max Temperature 45 °F 36 °F 45 °F (2014)
Min Temperature 26 °F 23 °F -11 °F (2007)
Degree Days  
Heating Degree Days 30    
Moisture  
Dew Point 32 °F    
Average Humidity 92    
Maximum Humidity 100    
Minimum Humidity 58    
Precipitation  
Precipitation 0.00 in 0.05 in - ()
Sea Level Pressure  
Sea Level Pressure 30.22 in    
Wind  
Wind Speed 2 mph ()    
Max Wind Speed 7 mph    
Max Gust Speed -    
Visibility 2.1 miles    
Events Fog , Snow    
Averages and records for this station are not official NWS values.
T = Trace of Precipitation, MM = Missing Value Source: Averaged Metar Reports

Daily Weather History Graph

Daily Weather History Graph

Search for Another Location

Airport or City:

Trip Planner

Search our weather history database for the weather conditions in past years. The results will help you decide how hot, cold, wet, or windy it might be!

Date:

Astronomy

Feb. 23, 2014 Rise Set
Actual Time 7:22 AM EET 5:42 PM EET
Civil Twilight 6:46 AM EET 6:19 PM EET
Nautical Twilight 6:04 AM EET 7:00 PM EET
Astronomical Twilight 5:23 AM EET 7:42 PM EET
Moon 2:29 AM EET (2/23) 10:58 AM EET (2/23)
Length of Visible Light 11h 32m
Length of Day
10h 19m
Last Quarter, 42% of the Moon is Illuminated
Feb 23
Last Quarter
Mar 1
New
Mar 8
First Quarter
Mar 16
Full
Mar 24
Last Quarter

Hourly Weather History & Observations

Time (EET) Temp. Windchill Dew Point Humidity Pressure Visibility Wind Dir Wind Speed Gust Speed Precip Events Conditions
12:20 AM 35.6 °F - 35.6 °F 100% 30.06 in 0.1 mi Variable 2.3 mph - N/A Fog Fog
12:50 AM 35.6 °F 31.7 °F 35.6 °F 100% 30.06 in 0.9 mi West 4.6 mph - N/A   Mostly Cloudy
1:08 AM 35.6 °F - 35.6 °F 100% 30.06 in 0.5 mi Variable 2.3 mph - N/A Fog Fog
1:20 AM 35.6 °F 32.8 °F 35.6 °F 100% 30.06 in 0.1 mi West 3.5 mph - N/A Fog Fog
1:50 AM 35.6 °F - 35.6 °F 100% 30.09 in 0.0 mi WNW 2.3 mph - N/A Fog Fog
2:00 AM 33 °F - 32 °F 94% 30.14 in 0 mi Calm Calm - - Fog Heavy Fog
2:20 AM 33.8 °F - 33.8 °F 100% 30.09 in 0.0 mi NW 2.3 mph - N/A Fog Fog
2:50 AM 33.8 °F 30.8 °F 33.8 °F 100% 30.09 in 0.0 mi WNW 3.5 mph - N/A Fog Fog
3:20 AM 33.8 °F - 33.8 °F 100% 30.09 in 0.0 mi Variable 2.3 mph - N/A Fog Fog
3:50 AM 32.0 °F - 32.0 °F 100% 30.12 in 0.0 mi South 2.3 mph - N/A Fog Fog
4:20 AM 32.0 °F - 32.0 °F 100% 30.12 in 0.0 mi Variable 1.2 mph - N/A Fog Fog
4:50 AM 30.2 °F - 30.2 °F 100% 30.12 in 0.0 mi Variable 1.2 mph - N/A Fog Fog
5:00 AM 29 °F - 28 °F 97% 30.20 in 0 mi Calm Calm - - Fog Heavy Fog
5:20 AM 30.2 °F - 30.2 °F 100% 30.15 in 0.0 mi Variable 1.2 mph - N/A Fog Light Freezing Fog
5:50 AM 30.2 °F - 30.2 °F 100% 30.15 in 0.0 mi SSE 2.3 mph - N/A Fog Light Freezing Fog
6:20 AM 28.4 °F - 28.4 °F 100% 30.15 in 0.0 mi ESE 2.3 mph - N/A Fog Light Freezing Fog
6:50 AM 28.4 °F - 28.4 °F 100% 30.15 in 0.1 mi Variable 1.2 mph - N/A Fog Light Freezing Fog
7:20 AM 28.4 °F 24.6 °F 28.4 °F 100% 30.15 in 0.1 mi SE 3.5 mph - N/A Fog Light Freezing Fog
7:50 AM 28.4 °F 24.6 °F 28.4 °F 100% 30.18 in 0.1 mi SE 3.5 mph - N/A Fog Light Freezing Fog
8:00 AM 28 °F - 27 °F 94% 30.24 in 0 mi SE 4.5 mph - - Snow Light Snow
8:20 AM 28.4 °F - 28.4 °F 100% 30.18 in 0.1 mi SE 2.3 mph - N/A Fog Light Freezing Fog
8:50 AM 28.4 °F - 28.4 °F 100% 30.18 in 0.1 mi SE 2.3 mph - N/A Fog Light Freezing Fog
9:20 AM 28.4 °F - 28.4 °F 100% 30.21 in 0.1 mi Variable 1.2 mph - N/A Fog Light Freezing Fog
9:50 AM 30.2 °F - 30.2 °F 100% 30.21 in 0.1 mi Variable 2.3 mph - N/A Fog Light Freezing Fog
10:20 AM 30.2 °F - 30.2 °F 100% 30.21 in 0.1 mi Variable 2.3 mph - N/A Fog Light Freezing Fog
10:50 AM 32.0 °F - 32.0 °F 100% 30.21 in 0.1 mi Variable 1.2 mph - N/A Fog Light Freezing Fog
11:00 AM 31 °F - 30 °F 95% 30.29 in 0 mi Calm Calm - - Fog Heavy Fog
11:10 AM 32.0 °F - 32.0 °F 100% 30.24 in 0.1 mi NNW 1.2 mph - N/A Fog Fog
11:20 AM 33.8 °F - 33.8 °F 100% 30.24 in 0.1 mi Variable 2.3 mph - N/A Fog Fog
11:50 AM 35.6 °F - 35.6 °F 100% 30.24 in 0.1 mi Variable 1.2 mph - N/A Fog Fog
12:09 PM 37.4 °F - 37.4 °F 100% 30.24 in 0.2 mi Calm Calm - N/A Fog Fog
12:20 PM 37.4 °F - 37.4 °F 100% 30.24 in 0.6 mi Variable 2.3 mph - N/A   Mostly Cloudy
12:37 PM 39.2 °F - 39.2 °F 100% 30.24 in 0.9 mi Variable 2.3 mph - N/A   Scattered Clouds
12:50 PM 41.0 °F - 41.0 °F 100% 30.24 in 1.6 mi Variable 2.3 mph - N/A   Scattered Clouds
12:52 PM 41.0 °F - 41.0 °F 100% 30.24 in 1.6 mi Variable 2.3 mph - N/A   Scattered Clouds
1:20 PM 42.8 °F - 42.8 °F 100% 30.24 in 4.3 mi Variable 2.3 mph - N/A   Partly Cloudy
1:50 PM 44.6 °F 42.2 °F 33.8 °F 66% 30.24 in 6.2 mi SSW 4.6 mph - N/A   Scattered Clouds
2:00 PM 40 °F - 40 °F 99% 30.29 in 12 mi SSE 2.2 mph - - Fog Light Fog
2:20 PM 44.6 °F 41.4 °F 32.0 °F 61% 30.24 in 6.2 mi South 5.8 mph - N/A   Scattered Clouds
2:50 PM 44.6 °F 40.7 °F 32.0 °F 61% 30.24 in 6.2 mi SSW 6.9 mph - N/A   Mostly Cloudy
3:20 PM 44.6 °F 42.2 °F 32.0 °F 61% 30.24 in 6.2 mi West 4.6 mph - N/A   Mostly Cloudy
3:50 PM 44.6 °F 42.2 °F 32.0 °F 61% 30.24 in 6.2 mi West 4.6 mph - N/A   Mostly Cloudy
4:20 PM 44.6 °F 41.4 °F 32.0 °F 61% 30.27 in 6.2 mi SW 5.8 mph - N/A   Mostly Cloudy
4:50 PM 42.8 °F 40.1 °F 32.0 °F 66% 30.27 in 6.2 mi SW 4.6 mph - N/A   Scattered Clouds
5:00 PM 44 °F - 34 °F 58% 30.30 in 12 mi SSW 4.5 mph - -   Scattered Clouds
5:20 PM 41.0 °F 38.0 °F 32.0 °F 70% 30.27 in 6.2 mi SW 4.6 mph - N/A   Scattered Clouds
5:50 PM 41.0 °F 39.0 °F 32.0 °F 70% 30.27 in 5.0 mi South 3.5 mph - N/A   Unknown
6:20 PM 37.4 °F - 32.0 °F 81% 30.27 in 5.0 mi SSE 2.3 mph - N/A   Unknown
6:50 PM 35.6 °F 32.8 °F 32.0 °F 87% 30.30 in 4.3 mi South 3.5 mph - N/A   Unknown
7:20 PM 35.6 °F 32.8 °F 30.2 °F 81% 30.30 in 2.5 mi SE 3.5 mph - N/A   Mist
7:50 PM 33.8 °F - 32.0 °F 93% 30.30 in 1.7 mi SE 1.2 mph - N/A   Mist
8:00 PM 34 °F - 31 °F 86% 30.36 in 12 mi Calm Calm - -  
8:20 PM 32.0 °F - 30.2 °F 93% 30.30 in 1.6 mi South 1.2 mph - N/A   Mist
8:50 PM 32.0 °F 28.7 °F 30.2 °F 93% 30.33 in 1.6 mi South 3.5 mph - N/A   Mist
9:20 PM 30.2 °F - 30.2 °F 100% 30.33 in 1.4 mi South 2.3 mph - N/A   Mist
9:50 PM 28.4 °F - 28.4 °F 100% 30.33 in 0.9 mi SSE 1.2 mph - N/A   Mist
10:20 PM 30.2 °F - 30.2 °F 100% 30.33 in 1.0 mi SSE 2.3 mph - N/A   Mist
10:50 PM 26.6 °F 21.2 °F 26.6 °F 100% 30.33 in 1.1 mi SSE 4.6 mph - N/A   Mist
11:00 PM 30 °F - 29 °F 93% 30.40 in 2 mi SSE 4.5 mph - -   Mist
11:20 PM 26.6 °F - 26.6 °F 100% 30.36 in 1.4 mi South 2.3 mph - N/A   Mist
11:50 PM 28.4 °F - 28.4 °F 100% 30.36 in 1.4 mi South 2.3 mph - N/A   Mist